Other Public Products
Issued by NWS Charleston, SC

Current Version | Previous Version | Graphics & Text | Print | Product List | Glossary On
Versions: 1 2 3 4 5 6 7 8 9 10 11 12 13 14 15 16 17 18 19 20 21 22 23 24 25 26 27 28 29 30 31 32 33 34 35 36 37 38 39 40 41 42 43 44 45 46 47 48 49 50
274
FPUS82 KCHS 250927
OPUCHS

TEST...KCHS/KSAV Gateway Observations...TEST
National Weather Service Charleston SC
400 AM EST SUN FEB 25 2018

NOTE: "fair" indicates few or no clouds below 12,000 feet with no
significant weather and/or obstructions to visibility.

SCZ050-WAZ558-NCZ071-TXZ119-213-PAZ071-DCZ001-FLZ074-172-MI076-
NYZ176-178-MAZ016-IL014-TNZ027-NJZ106-GAZ044-MD014-251000-

...Gateway Observations for Charleston International...

CITY           SKY/WX    TMP DP  RH WIND       PRES   REMARKS
Chas Airport   FAIR      68  65  90 SW14      30.11F
Seattle        CLOUDY    40  35  83 S18       30.03F WCI  31
Charlotte      FAIR      64  59  83 S13       30.03S
Dallas DFW     PTCLDY    45  42  89 N8        30.00S
Dallas Love    PTCLDY    48  42  80 N6        30.01S
Philladelphia  LGT RAIN  45  43  93 E10       30.07S
Wash National  CLOUDY    48  47  96 E5        30.04F
Baltimore      DRIZZLE   45  45 100 E7        30.03S FOG
Miami          MOCLDY    73  68  84 E6        30.14S
Detroit        LGT RAIN  42  42 100 SE7       29.51F VSB 1/2
Newark         RAIN      43  39  86 E6        30.16R FOG
Laguardia      RAIN      42  38  85 NE7       30.17R
J F K          LGT RAIN  43  39  86 E14       30.17S
Boston Logan   CLOUDY    39  31  72 E17       30.29F WCI  30
Ft. Lauderdale FAIR      74  69  85 SE9       30.14R
Chicago O`Hare CLOUDY    36  28  73 W20G39    29.62R WCI  25
Chicago Midway CLOUDY    37  29  72 W25G48    29.65R WCI  25
Houston Bush   TSTM      62  59  90 NE20      29.99R
Houston Hobby  LGT RAIN  72  72 100 S7        29.92F
Nashville      LGT RAIN  55  53  93 S9        29.95R
Atlanta        MOCLDY    66  63  90 SW12      30.05S

$$

GAZ044-118-TXZ119-213-NCZ071-DCZ001-MDZ014-506-PAZ021-071-NJZ106-
NYZ176-178-MAZ106-OHZ011-021-055-MIZ076-KYZ091-ILZ014-INZ047-
MNZ060-ONZ431-251000-

...Gateway Observations for Savannah International...

CITY           SKY/WX    TMP DP  RH WIND       PRES   REMARKS
Savannah Arpt  FAIR      66  64  93 S8        30.11F
Atlanta        MOCLDY    66  63  90 SW12      30.05S
Charlotte      FAIR      64  59  83 S13       30.03S
Dallas DFW     PTCLDY    45  42  89 N8        30.00S
Houston Bush   TSTM      62  59  90 NE20      29.99R
Wash National  CLOUDY    48  47  96 E5        30.04F
Wash Dulles    CLOUDY    47  47 100 E3        30.03F FOG
Baltimore      DRIZZLE   45  45 100 E7        30.03S FOG
Philadelphia   LGT RAIN  45  43  93 E10       30.07S
Newark         RAIN      43  39  86 E6        30.16R FOG
Laguardia      RAIN      42  38  85 NE7       30.17R
J F K          LGT RAIN  43  39  86 E14       30.17S
Boston         CLOUDY    39  31  72 E17       30.29F WCI  30
Pittsburg      CLOUDY    54  53  97 S12       29.73F
Akron          LGT RAIN  57  53  86 SW20G32   29.62R
Cleveland      CLOUDY    52  50  93 SE13      29.60S
Cincinnati     LGT RAIN  59  57  93 SW7       29.72R
Columbus       FAIR      57  56  97 S20G25    29.66R
Detroit        LGT RAIN  42  42 100 SE7       29.51F VSB 1/2
Chicago O`Hare CLOUDY    36  28  73 W20G39    29.62R WCI  25
Minneapolis    CLOUDY    17  15  92 W15G25    29.53R WCI   2
Indianapolis   CLOUDY    46  39  76 W29G37    29.76R
Toronto Canada LGT RAIN  34  32  93 E18G29    29.73F WCI  23

$$




USA.gov is the U.S. government's official web portal to all federal, state and local government web resources and services.